Weather History for PAOM - October, 2012

Change the Weather History Date:

Saturday, October 6, 2012

  Actual Average Record
Temperature  
Mean Temperature 39 °F 33 °F  
Max Temperature 41 °F 39 °F 52 °F (1925)
Min Temperature 36 °F 28 °F 16 °F (1960)
Degree Days  
Heating Degree Days 26 32  
Month to date heating degree days 147 183  
Since 1 July heating degree days 1801 1713  
Cooling Degree Days 0    
Month to date cooling degree days 0  
Year to date cooling degree days 0  
Moisture  
Dew Point 37 °F    
Average Humidity 0    
Maximum Humidity 0    
Minimum Humidity 0    
Precipitation  
Precipitation 0.03 in 0.06 in 0.85 in (1985)
Month to date precipitation 1.11 0.38  
Year to date precipitation 17.86 13.28  
Snow  
Snow 0.00 in 0.00 in 1.00 in (1984)
Month to date snowfall 0.2 0.4  
Since 1 July snowfall 0.5 1.0  
Since 1 September snowfall 0.5 1.0  
Snow Depth 0.00 in    
Sea Level Pressure  
Sea Level Pressure 29.78 in    
Wind  
Wind Speed 17 mph (SSW)    
Max Wind Speed 24 mph    
Max Gust Speed 32 mph    
Visibility 10 miles    
Events Rain    
T = Trace of Precipitation, MM = Missing Value Source: NWS Daily Summary

Daily Weather History Graph

Daily Weather History Graph

Search for Another Location

Airport or City:

Trip Planner

Search our weather history database for the weather conditions in past years. The results will help you decide how hot, cold, wet, or windy it might be!

Date:

Astronomy

Oct. 06, 2012 Rise Set
Actual Time 9:28 AM AKDT 8:09 PM AKDT
Civil Twilight 8:39 AM AKDT 8:57 PM AKDT
Nautical Twilight 7:43 AM AKDT 9:53 PM AKDT
Astronomical Twilight 6:43 AM AKDT 10:52 PM AKDT
Moon 10:46 PM AKDT (10/6) 5:24 PM AKDT (10/6)
Length of Visible Light 12h 18m
Length of Day
10h 41m
Waning Gibbous, 64% of the Moon is Illuminated
Oct 6
Waning Gibbous
Oct 7
Last Quarter
Oct 15
New
Oct 21
First Quarter
Oct 29
Full

Hourly Weather History & Observations

Time (AKDT) Temp. Windchill Dew Point Humidity Pressure Visibility Wind Dir Wind Speed Gust Speed Precip Events Conditions
12:24 AM 39.2 °F 31.6 °F 37.4 °F 93% 29.58 in 10.0 mi South 12.7 mph - 0.00 in   Overcast
12:53 AM 39.9 °F 32.1 °F 37.9 °F 93% 29.59 in 10.0 mi South 13.8 mph - 0.00 in   Overcast
1:53 AM 39.9 °F 31.8 °F 37.9 °F 93% 29.61 in 10.0 mi South 15.0 mph - 0.00 in Rain Light Rain
2:13 AM 39.2 °F 32.0 °F 37.4 °F 93% 29.61 in 6.0 mi South 11.5 mph - 0.00 in Rain Light Rain
2:23 AM 39.2 °F 30.8 °F 37.4 °F 93% 29.61 in 10.0 mi South 15.0 mph - 0.00 in Rain Light Rain
2:30 AM 39.2 °F 30.8 °F 37.4 °F 93% 29.61 in 10.0 mi South 15.0 mph - 0.00 in Rain Light Rain
2:53 AM 39.9 °F 32.9 °F 37.9 °F 93% 29.62 in 8.0 mi South 11.5 mph - 0.00 in Rain Light Rain
3:06 AM 39.2 °F 30.5 °F 39.2 °F 100% 29.62 in 10.0 mi SSE 16.1 mph - 0.01 in Rain Light Rain
3:20 AM 39.2 °F 30.5 °F 39.2 °F 100% 29.62 in 10.0 mi SSE 16.1 mph - 0.01 in Rain Light Rain
3:36 AM 39.2 °F 30.8 °F 39.2 °F 100% 29.63 in 5.0 mi South 15.0 mph - 0.01 in Rain Light Rain
3:53 AM 39.9 °F 30.5 °F 39.0 °F 97% 29.63 in 10.0 mi South 19.6 mph - 0.01 in Rain Light Rain
4:03 AM 39.2 °F 29.6 °F 37.4 °F 93% 29.62 in 9.0 mi South 19.6 mph - 0.00 in Rain Light Rain
4:16 AM 39.2 °F 29.3 °F 37.4 °F 93% 29.63 in 7.0 mi SSW 20.7 mph - 0.00 in Rain Light Rain
4:21 AM 39.2 °F 29.3 °F 37.4 °F 93% 29.63 in 9.0 mi South 20.7 mph - 0.00 in   Overcast
4:53 AM 39.0 °F 28.8 °F 36.0 °F 89% 29.65 in 10.0 mi SSW 21.9 mph 28.8 mph 0.00 in   Overcast
5:18 AM 39.2 °F 29.3 °F 35.6 °F 87% 29.66 in 10.0 mi SSW 20.7 mph 28.8 mph N/A   Overcast
5:53 AM 39.2 °F 30.2 °F 35.6 °F 87% 29.68 in 10.0 mi South 17.3 mph - N/A   Overcast
6:01 AM 39.2 °F 30.5 °F 35.6 °F 87% 29.68 in 10.0 mi South 16.1 mph - N/A   Overcast
6:22 AM 39.2 °F 29.6 °F 35.6 °F 87% 29.68 in 10.0 mi South 19.6 mph 27.6 mph N/A   Overcast
6:34 AM 39.2 °F 30.8 °F 35.6 °F 87% 29.69 in 10.0 mi SSW 15.0 mph 27.6 mph N/A   Overcast
6:53 AM 39.9 °F 31.8 °F 35.1 °F 83% 29.70 in 10.0 mi SSW 15.0 mph - N/A   Mostly Cloudy
7:24 AM 39.2 °F 30.8 °F 35.6 °F 87% 29.71 in 10.0 mi South 15.0 mph - N/A   Mostly Cloudy
7:53 AM 39.0 °F 30.6 °F 36.0 °F 89% 29.72 in 10.0 mi South 15.0 mph - 0.00 in   Mostly Cloudy
8:53 AM 39.0 °F 29.3 °F 35.1 °F 86% 29.74 in 10.0 mi South 19.6 mph 27.6 mph 0.00 in   Mostly Cloudy
9:53 AM 39.9 °F 30.8 °F 36.0 °F 86% 29.75 in 10.0 mi South 18.4 mph 26.5 mph 0.01 in   Mostly Cloudy
10:36 AM 39.2 °F 29.6 °F 35.6 °F 87% 29.77 in 10.0 mi South 19.6 mph - N/A   Mostly Cloudy
10:53 AM 39.9 °F 30.8 °F 36.0 °F 86% 29.78 in 10.0 mi South 18.4 mph - N/A   Scattered Clouds
11:53 AM 41.0 °F 33.1 °F 37.0 °F 86% 29.81 in 10.0 mi South 15.0 mph - N/A   Mostly Cloudy
12:01 PM 41.0 °F 32.5 °F 37.4 °F 87% 29.80 in 10.0 mi South 17.3 mph - N/A   Mostly Cloudy
12:25 PM 39.2 °F 29.6 °F 35.6 °F 87% 29.82 in 10.0 mi South 19.6 mph 27.6 mph N/A   Mostly Cloudy
12:53 PM 41.0 °F 32.2 °F 37.0 °F 86% 29.83 in 10.0 mi South 18.4 mph - N/A   Scattered Clouds
1:41 PM 39.2 °F 29.0 °F 35.6 °F 87% 29.85 in 7.0 mi SSW 21.9 mph 29.9 mph 0.00 in Rain Light Rain
1:53 PM 39.9 °F 30.8 °F 37.0 °F 89% 29.85 in 10.0 mi South 18.4 mph 26.5 mph 0.00 in Rain Light Rain
2:44 PM 41.0 °F 32.5 °F 37.4 °F 87% 29.87 in 10.0 mi SSW 17.3 mph 26.5 mph 0.00 in   Mostly Cloudy
2:53 PM 41.0 °F 31.9 °F 36.0 °F 82% 29.87 in 10.0 mi SSW 19.6 mph - 0.00 in   Overcast
3:28 PM 41.0 °F 31.9 °F 35.6 °F 81% 29.87 in 10.0 mi SSW 19.6 mph - N/A   Overcast
3:51 PM 41.0 °F 32.5 °F 37.4 °F 87% 29.88 in 10.0 mi SSW 17.3 mph - N/A   Overcast
3:53 PM 41.0 °F 32.8 °F 37.0 °F 86% 29.89 in 10.0 mi South 16.1 mph - N/A   Overcast
4:53 PM 39.9 °F 29.5 °F 36.0 °F 86% 29.90 in 10.0 mi SSW 24.2 mph - 0.00 in Rain Light Rain
5:40 PM 39.2 °F 29.8 °F 37.4 °F 93% 29.92 in 10.0 mi SSW 18.4 mph - 0.00 in   Overcast
5:53 PM 39.0 °F 29.0 °F 37.0 °F 93% 29.92 in 10.0 mi SSW 20.7 mph - 0.00 in   Overcast
6:53 PM 39.0 °F 30.3 °F 37.0 °F 93% 29.93 in 10.0 mi SW 16.1 mph - 0.01 in   Overcast
7:37 PM 39.2 °F 30.2 °F 37.4 °F 93% 29.97 in 6.0 mi SW 17.3 mph - 0.00 in Rain Light Rain
7:53 PM 39.0 °F 29.9 °F 37.0 °F 93% 29.97 in 10.0 mi SW 17.3 mph - 0.00 in Rain Light Rain
8:53 PM 39.0 °F 30.3 °F 36.0 °F 89% 29.99 in 10.0 mi SSW 16.1 mph - 0.00 in   Overcast
9:53 PM 37.9 °F 29.2 °F 36.0 °F 93% 30.02 in 10.0 mi SW 15.0 mph - 0.00 in   Overcast
10:53 PM 37.9 °F 30.5 °F 37.0 °F 97% 30.03 in 10.0 mi SW 11.5 mph - 0.00 in Rain Light Rain
11:23 PM 37.4 °F 29.8 °F 35.6 °F 93% 30.04 in 10.0 mi WSW 11.5 mph - 0.00 in   Overcast
11:53 PM 37.0 °F 29.8 °F 37.0 °F 100% 30.05 in 8.0 mi SW 10.4 mph - 0.00 in   Overcast